STARLINK-32231 (60439 NORAD) Tracking and Keplerian Element Data

This shows tracking and keplerian element data for the satellite.

Feedback or suggestion? Click here.




ElementValue
Catalog60439
NameSTARLINK-32231
Epoch Orbit987
Epoch Day286.71783342
Epoch Year2024
RAAN79.6348
Inclination53.1619
Eccentricity0.0001129
Argument of Perigee90.1933
Mean Anonmoly269.9197
Mean Motion15.30185113
Decay Rate1.87E-06
L11 60439U 24144Q 24286.71783342 .00000187 00000+0 18457-4 0 9998
L22 60439 53.1619 79.6348 0001129 90.1933 269.9197 15.30185113 9879



Live tracking and technical data element details for STARLINK-32231 (NORAD 60439). STARLINK-32231 can be tracked NOW for your location showing map with azimuth and elevation plus other details from your city location.







IsCatalogInMostPopularTable: catalog: 60439, numindb: 6
Update: records affected: 1



GetName: 60439 STARLINK-32231

Hit Count: updated at: Wed, 04 Dec 2024 18:34:34 GMT